Newburgh, NY

4:56 PM EDT on September 21, 2017 (GMT -0400)
Stewart International

Weather History for KSWF - January, 2014

Change the Weather History Date:

Friday, January 17, 2014

  Actual Average Record
Temperature  
Mean Temperature 32 °F -  
Max Temperature 41 °F 29 °F 50 °F (1990)
Min Temperature 23 °F 14 °F -27 °F (2004)
Degree Days  
Heating Degree Days 33    
Moisture  
Dew Point 26 °F    
Average Humidity 86    
Maximum Humidity 100    
Minimum Humidity 57    
Precipitation  
Precipitation 0.00 in - - ()
Sea Level Pressure  
Sea Level Pressure 29.93 in    
Wind  
Wind Speed 1 mph (WSW)    
Max Wind Speed 8 mph    
Max Gust Speed -    
Visibility 11 miles    
Events      
Averages and records for this station are not official NWS values.
T = Trace of Precipitation, MM = Missing Value Source: NWS Daily Summary

Daily Weather History Graph

Daily Weather History Graph

Search for Another Location

Airport or City:

Trip Planner

Search our weather history database for the weather conditions in past years. The results will help you decide how hot, cold, wet, or windy it might be!

Date:

Astronomy

Jan. 17, 2014 Rise Set
Actual Time 7:19 AM EST 4:53 PM EST
Civil Twilight 6:49 AM EST 5:24 PM EST
Nautical Twilight 6:15 AM EST 5:58 PM EST
Astronomical Twilight 5:41 AM EST 6:31 PM EST
Moon 6:39 PM EST (1/17) 7:44 AM EST (1/17)
Length of Visible Light 10h 35m
Length of Day
9h 34m
Full, 98% of the Moon is Illuminated
Jan 17
Full
Jan 24
Last Quarter
Jan 30
New
Feb 6
First Quarter
Feb 14
Full

Hourly Weather History & Observations

Time (EST) Temp. Windchill Dew Point Humidity Pressure Visibility Wind Dir Wind Speed Gust Speed Precip Events Conditions
12:45 AM 26.6 °F - 24.8 °F 93% 29.92 in 10.0 mi Calm Calm - N/A   Mostly Cloudy
1:45 AM 24.8 °F - 24.8 °F 100% 29.92 in 10.0 mi Calm Calm - N/A   Scattered Clouds
2:45 AM 24.8 °F - 24.8 °F 100% 29.92 in 10.0 mi Calm Calm - N/A   Scattered Clouds
4:45 AM 23.0 °F - 23.0 °F 100% 29.93 in 10.0 mi Calm Calm - N/A   Scattered Clouds
5:45 AM 24.8 °F 17.9 °F 24.8 °F 100% 29.92 in 6.0 mi West 5.8 mph - N/A   Scattered Clouds
6:45 AM 23.0 °F - 23.0 °F 100% 29.94 in 10.0 mi Calm Calm - N/A   Scattered Clouds
7:45 AM 23.0 °F - 23.0 °F 100% 29.94 in 10.0 mi Calm Calm - N/A   Scattered Clouds
8:45 AM 26.6 °F - 26.6 °F 100% 29.96 in 10.0 mi Calm Calm - N/A   Mostly Cloudy
9:45 AM 28.4 °F - 26.6 °F 93% 29.96 in 10.0 mi Calm Calm - N/A   Mostly Cloudy
10:45 AM 32.0 °F - 28.4 °F 87% 29.96 in 15.0 mi Calm Calm - N/A   Scattered Clouds
12:50 PM 39.2 °F 34.2 °F 26.6 °F 61% 29.91 in 15.0 mi SSW 6.9 mph - N/A   Scattered Clouds
2:45 PM 41.0 °F 35.8 °F 26.6 °F 57% 29.91 in 15.0 mi West 8.1 mph - N/A   Mostly Cloudy
3:45 PM 41.0 °F 37.1 °F 26.6 °F 57% 29.91 in 15.0 mi WSW 5.8 mph - N/A   Mostly Cloudy
4:45 PM 39.2 °F - 26.6 °F 61% 29.91 in 10.0 mi Calm Calm - N/A   Mostly Cloudy
5:45 PM 35.6 °F - 26.6 °F 70% 29.91 in 10.0 mi Calm Calm - N/A   Mostly Cloudy
6:45 PM 32.0 °F - 28.4 °F 87% 29.93 in 10.0 mi Calm Calm - N/A   Mostly Cloudy
7:45 PM 30.2 °F - 26.6 °F 86% 29.93 in 10.0 mi Calm Calm - N/A   Mostly Cloudy
8:45 PM 30.2 °F - 26.6 °F 86% 29.93 in 10.0 mi Calm Calm - N/A   Mostly Cloudy
9:45 PM 30.2 °F - 26.6 °F 86% 29.93 in 10.0 mi Calm Calm - N/A   Clear
10:45 PM 28.4 °F - 26.6 °F 93% 29.91 in 10.0 mi Calm Calm - N/A   Overcast
11:45 PM 28.4 °F - 26.6 °F 93% 29.89 in 10.0 mi Calm Calm - N/A   Overcast